Location: A�t Lahcen
(32.8243°N, 5.4246°W)
Time: 00:22:55
(UTC+00:00)

ATLAS 5 CENTAUR R/B - Pass Details

Date: 27 January 2021
Orbit: 254 x 14223 km, 60.8° (Epoch: 26 February)

Event Time Altitude Azimuth Distance (km) Brightness Sun altitude
Exits shadow 05:14:33 28° 41° (NE) 970 3.3 -26.3°
Maximum altitude 05:15:12 30° 64° (ENE) 1,016 3.6 -26.2°
Drops below altitude 10° 05:20:46 10° 126° (SE) 3,269 6.5 -25.0°
Sets 05:26:43 0° 135° (SE) 5,932 7.9 -23.8°
